カタログに戻る

SL-16 DEB

運用中LEO
NORAD 19657·DEBRIS·🇷🇺 Russia

打ち上げ Nov 23, 1988 から Baikonur Cosmodrome

Loading…

次のパス (今後24時間)

TLE

最新Source: Space-Track

元期: Sep 14, 2026, 06:53 UTC

1 19657U 88102D   26257.28748001  .00000035  00000-0  72633-4 0  9992
2 19657  70.9840   1.6147 0208829  41.8045 349.1118 13.72212340891884

AllMySatでSL-16 DEBをリアルタイム追跡

Download on the App Store